BAW28 EGLL-FIMP

Flight info

Callsign BAW28
Flight time N/A
Altitude 33000
Route DET L6 DVR L9 KONAN UL607 REMBA M624 DIK N852 SUTAL DCT GTQ DCT BEGAR DCT ELMUR DCT RESIA DCT LATAN DCT SALUN N705 MMA L613 KIVIL N710 TAKRI P751 LXR M999 JDW G650 ULONI UV790 SB DCT DEKRA DCT DTI UR775 MOGDU UN304 MAEVA UL433 APKOT DCT TIBAG TIBAG2E
Aircraft A35K/H-SDE2E3GHIJ3J4J5LM1ORWXY/LB1D1

Departure

Time 2026-05-05 05:49
Airport London Heathrow Airport (EGLL)

Arrival

Time N/A
Airport Sir Seewoosagur Ramgoolam International Airport (FIMP)
Time Latitude Longitude Altitude Speed Heading
2026-05-05 05:17 51.47316 -0.47730 96 ft 0 kts 89°
2026-05-05 05:40 51.47316 -0.47737 95 ft 3 kts 89°
2026-05-05 05:40 51.47316 -0.47780 92 ft 4 kts 90°
2026-05-05 05:40 51.47315 -0.47815 92 ft 4 kts 93°
2026-05-05 05:41 51.47321 -0.47854 91 ft 4 kts 130°
2026-05-05 05:41 51.47341 -0.47872 91 ft 3 kts 180°
2026-05-05 05:41 51.47367 -0.47872 91 ft 4 kts 180°
2026-05-05 05:41 51.47376 -0.47872 90 ft 0 kts 180°
2026-05-05 05:44 51.47372 -0.47872 90 ft 4 kts 179°
2026-05-05 05:44 51.47273 -0.47872 93 ft 19 kts 179°
2026-05-05 05:44 51.47158 -0.47870 92 ft 19 kts 179°
2026-05-05 05:45 51.47012 -0.47869 92 ft 23 kts 179°
2026-05-05 05:45 51.46840 -0.47867 92 ft 26 kts 179°
2026-05-05 05:45 51.46745 -0.47986 94 ft 17 kts 264°
2026-05-05 05:45 51.46743 -0.48110 93 ft 11 kts 269°
2026-05-05 05:46 51.46742 -0.48245 92 ft 15 kts 270°
2026-05-05 05:46 51.46728 -0.48427 97 ft 17 kts 232°
2026-05-05 05:46 51.46658 -0.48557 95 ft 18 kts 257°
2026-05-05 05:46 51.46614 -0.48747 95 ft 20 kts 214°
2026-05-05 05:47 51.46495 -0.48728 94 ft 18 kts 121°
2026-05-05 05:47 51.46480 -0.48636 94 ft 0 kts 97°
2026-05-05 05:47 51.46480 -0.48631 94 ft 0 kts 94°
2026-05-05 05:48 51.46480 -0.48385 95 ft 53 kts 89°
2026-05-05 05:48 51.46482 -0.47483 94 ft 108 kts 89°
2026-05-05 05:48 51.46490 -0.46015 94 ft 154 kts 88°
2026-05-05 05:49 51.46494 -0.44258 503 ft 157 kts 90°
2026-05-05 05:49 51.46475 -0.42467 954 ft 161 kts 89°
2026-05-05 05:49 51.46440 -0.40666 1372 ft 168 kts 89°
2026-05-05 05:49 51.45956 -0.38843 1559 ft 190 kts 124°
2026-05-05 05:50 51.45141 -0.37057 1826 ft 207 kts 119°
2026-05-05 05:50 51.44423 -0.34957 2074 ft 224 kts 111°
2026-05-05 05:50 51.43790 -0.32553 2334 ft 243 kts 108°
2026-05-05 05:50 51.43178 -0.29960 2807 ft 253 kts 107°
2026-05-05 05:51 51.42659 -0.27252 3390 ft 255 kts 101°
2026-05-05 05:51 51.42251 -0.24452 3929 ft 261 kts 99°
2026-05-05 05:51 51.41857 -0.21582 4493 ft 266 kts 100°
2026-05-05 05:51 51.41458 -0.18668 5072 ft 270 kts 100°
2026-05-05 05:52 51.41052 -0.15711 5671 ft 274 kts 101°
2026-05-05 05:52 51.40643 -0.12717 6301 ft 277 kts 101°
2026-05-05 05:52 51.40225 -0.09692 6906 ft 280 kts 101°
2026-05-05 05:52 51.39800 -0.06639 7544 ft 282 kts 101°
2026-05-05 05:53 51.39372 -0.03561 8233 ft 284 kts 102°
2026-05-05 05:53 51.38940 -0.00457 8902 ft 287 kts 102°
2026-05-05 05:53 51.38502 0.02684 9559 ft 291 kts 102°
2026-05-05 05:53 51.38058 0.05869 10186 ft 296 kts 102°
2026-05-05 05:54 51.37601 0.09144 10595 ft 307 kts 102°
2026-05-05 05:54 51.37125 0.12548 10980 ft 320 kts 102°
2026-05-05 05:54 51.36627 0.16096 11361 ft 333 kts 102°
2026-05-05 05:54 51.36110 0.19776 11741 ft 345 kts 102°
2026-05-05 05:55 51.35574 0.23588 12091 ft 357 kts 102°
2026-05-05 05:55 51.35013 0.27541 12405 ft 371 kts 102°
2026-05-05 05:55 51.34432 0.31630 12686 ft 383 kts 103°
2026-05-05 05:55 51.33831 0.35842 13069 ft 392 kts 103°
2026-05-05 05:56 51.33221 0.40117 13604 ft 397 kts 103°
2026-05-05 05:56 51.32601 0.44445 14162 ft 401 kts 103°
2026-05-05 05:56 51.31979 0.48797 14719 ft 403 kts 103°
2026-05-05 05:56 51.31351 0.53178 15270 ft 405 kts 103°
2026-05-05 05:57 51.30715 0.57577 15811 ft 407 kts 103°
2026-05-05 05:57 51.30069 0.61993 16361 ft 410 kts 104°
2026-05-05 05:57 51.29329 0.66404 16860 ft 412 kts 106°
2026-05-05 05:57 51.28511 0.70809 17391 ft 415 kts 107°
2026-05-05 05:58 51.27664 0.75216 17965 ft 415 kts 108°
2026-05-05 05:58 51.26811 0.79642 18441 ft 419 kts 107°
2026-05-05 05:58 51.25957 0.84122 18829 ft 424 kts 107°
2026-05-05 05:58 51.25108 0.88634 19302 ft 426 kts 107°
2026-05-05 05:59 51.24261 0.93176 19762 ft 429 kts 107°
2026-05-05 05:59 51.23410 0.97755 20179 ft 433 kts 107°
2026-05-05 05:59 51.22552 1.02380 20649 ft 436 kts 108°
2026-05-05 05:59 51.21690 1.07025 21188 ft 438 kts 108°
2026-05-05 06:00 51.20819 1.11698 21648 ft 441 kts 108°
2026-05-05 06:00 51.19940 1.16398 22105 ft 444 kts 108°
2026-05-05 06:00 51.19052 1.21135 22602 ft 447 kts 108°
2026-05-05 06:00 51.18157 1.25889 23085 ft 450 kts 108°
2026-05-05 06:01 51.17252 1.30685 23518 ft 454 kts 108°
2026-05-05 06:01 51.16493 1.35585 23898 ft 458 kts 101°
2026-05-05 06:01 51.16066 1.40647 24271 ft 463 kts 98°
2026-05-05 06:01 51.15747 1.45762 24630 ft 467 kts 97°
2026-05-05 06:02 51.15482 1.50949 24983 ft 471 kts 96°
2026-05-05 06:02 51.15241 1.56160 25365 ft 474 kts 96°
2026-05-05 06:02 51.15007 1.61347 25733 ft 477 kts 96°
2026-05-05 06:02 51.14761 1.66706 26097 ft 481 kts 96°
2026-05-05 06:03 51.14511 1.71958 26447 ft 484 kts 97°
2026-05-05 06:03 51.14248 1.77318 26778 ft 487 kts 97°
2026-05-05 06:03 51.13977 1.82704 27122 ft 490 kts 97°
2026-05-05 06:03 51.13699 1.88124 27464 ft 493 kts 97°
2026-05-05 06:04 51.13416 1.93577 27804 ft 495 kts 97°
2026-05-05 06:04 51.13130 1.99058 28138 ft 498 kts 97°
2026-05-05 06:04 51.12843 2.04564 28449 ft 501 kts 97°
2026-05-05 06:04 51.12551 2.10106 28771 ft 503 kts 97°
2026-05-05 06:05 51.12253 2.15663 29179 ft 503 kts 97°
2026-05-05 06:05 51.11953 2.21197 29637 ft 502 kts 98°
2026-05-05 06:05 51.11650 2.26731 30058 ft 502 kts 98°
2026-05-05 06:05 51.11345 2.32261 30403 ft 501 kts 98°
2026-05-05 06:06 51.11038 2.37792 30723 ft 501 kts 98°
2026-05-05 06:06 51.10730 2.43307 31056 ft 501 kts 98°
2026-05-05 06:06 51.10418 2.48817 31363 ft 500 kts 98°
2026-05-05 06:06 51.10104 2.54332 31664 ft 500 kts 98°
2026-05-05 06:07 51.09787 2.59846 31947 ft 500 kts 98°
2026-05-05 06:07 51.09292 2.65295 32220 ft 496 kts 105°
2026-05-05 06:07 51.08476 2.70617 32500 ft 495 kts 108°
2026-05-05 06:07 51.07580 2.75887 32772 ft 494 kts 109°
2026-05-05 06:08 51.06638 2.81149 32945 ft 496 kts 110°
2026-05-05 06:08 51.05670 2.86427 32935 ft 500 kts 110°
2026-05-05 06:08 51.03703 2.97049 32943 ft 501 kts 110°
2026-05-05 06:09 51.01739 3.07676 32941 ft 501 kts 110°
2026-05-05 06:09 50.99776 3.18296 32943 ft 501 kts 110°
2026-05-05 06:10 50.97807 3.28906 32941 ft 501 kts 110°
2026-05-05 06:10 50.95827 3.39515 32936 ft 501 kts 111°
2026-05-05 06:11 50.93837 3.50106 32939 ft 501 kts 111°
2026-05-05 06:11 50.91839 3.60683 32930 ft 501 kts 111°
2026-05-05 06:12 50.89832 3.71245 32934 ft 501 kts 111°
2026-05-05 06:12 50.88138 3.80010 32928 ft 501 kts 111°
2026-05-05 06:13 50.86083 3.90561 32927 ft 502 kts 111°
2026-05-05 06:13 50.84021 4.01115 32925 ft 502 kts 111°
2026-05-05 06:14 50.81954 4.11658 32929 ft 502 kts 112°
2026-05-05 06:14 50.79880 4.22179 32919 ft 501 kts 112°
2026-05-05 06:15 50.77802 4.32672 32931 ft 499 kts 112°
2026-05-05 06:15 50.75717 4.43130 32932 ft 499 kts 112°
2026-05-05 06:16 50.73624 4.53568 32930 ft 499 kts 112°